Location: Aufkirchen
(47.9603°N, 11.3653°E)
Time: 07:05:58
(UTC+01:00)

Transit 2A - Pass Details

Date: 01 December 2020
Orbit: 599 x 960 km, 66.7° (Epoch: 25 January)

Event Time Altitude Azimuth Distance (km) Brightness Sun altitude
Rises 02:16:51 0° 321° (NW) 3,288 - -52.7°
Reaches altitude 10° 02:19:27 10° 316° (NW) 2,294 - -52.4°
Maximum altitude 02:24:24 46° 244° (WSW) 947 - -51.7°
Drops below altitude 10° 02:28:52 10° 172° (S) 2,071 - -51.0°
Sets 02:31:07 0° 166° (SSE) 2,935 - -50.7°
